Location: Altmatt
(47.1333°N, 8.7000°E)
Time: 18:49:33
(UTC+00:00)

GEOS 3 Rocket - Pass Details

Date: 13 July 2020
Orbit: 771 x 848 km, 115.0° (Epoch: 11 August)

Event Time Altitude Azimuth Distance (km) Brightness Sun altitude
Rises 21:01:21 0° 43° (NE) 3,414 7.0 -13.4°
Reaches altitude 10° 21:03:48 10° 50° (NE) 2,478 6.2 -13.6°
Maximum altitude 21:08:59 46° 122° (ESE) 1,132 4.0 -14.1°
Drops below altitude 10° 21:14:07 10° 195° (SSW) 2,458 5.7 -14.6°
Enters shadow 21:14:50 - 198° (SSW) 2,727 6.0 -14.7°
